N1IJV-10 Weather Reports


time (UTC)temp
C
wind
direction
speed
KPH
gust
KPH
rain 1hr
cm
rain 24hr
cm
rain mn
cm
humidity
%
barometer
mb
20260510195831 18 194 0.0 4.8 0.00 0.00 0.00 36 1018.4
20260510195328 17 187 4.8 4.8 0.00 0.00 0.00 40 1018.5
20260510194823 17 87 1.6 1.6 0.00 0.00 0.00 33 1018.6
20260510194320 17 28 3.2 11.3 0.00 0.00 0.00 32 1018.6
20260510193815 18 108 1.6 4.8 0.00 0.00 0.00 37 1018.5
20260510193310 18 92 0.0 4.8 0.00 0.00 0.00 35 1018.4
20260510192806 17 187 1.6 8.0 0.00 0.00 0.00 38 1018.5
20260510192306 17 238 3.2 4.8 0.00 0.00 0.00 38 1018.6
20260510191758 17 27 3.2 16.1 0.00 0.00 0.00 35 1018.8
20260510191254 17 77 3.2 11.3 0.00 0.00 0.00 32 1018.8
20260510190752 18 32 4.8 14.5 0.00 0.00 0.00 38 1018.7
20260510190249 17 125 1.6 8.0 0.00 0.00 0.00 40 1018.5
20260510185745 18 134 1.6 4.8 0.00 0.00 0.00 37 1018.5
20260510185244 17 2 4.8 8.0 0.00 0.00 0.00 33 1018.6
20260510184740 17 350 6.4 9.7 0.00 0.00 0.00 37 1018.5
20260510184237 17 204 4.8 11.3 0.00 0.00 0.00 38 1018.7
20260510183731 17 243 6.4 11.3 0.00 0.00 0.00 33 1018.6
20260510183226 17 274 8.0 12.9 0.00 0.00 0.00 33 1018.8
20260510182723 17 85 4.8 8.0 0.00 0.00 0.00 37 1018.9
20260510182219 17 45 8.0 12.9 0.00 0.00 0.00 36 1018.5
20260510181716 17 29 3.2 8.0 0.00 0.00 0.00 36 1018.5
20260510181213 17 150 1.6 8.0 0.00 0.00 0.00 36 1018.6
20260510180709 17 339 1.6 8.0 0.00 0.00 0.00 31 1018.5
20260510180207 17 252 4.8 4.8 0.00 0.00 0.00 33 1018.7
20260510175702 17 29 4.8 8.0 0.00 0.00 0.00 39 1018.7
20260510175158 17 26 6.4 9.7 0.00 0.00 0.00 36 1018.6
20260510174656 16 30 3.2 9.7 0.00 0.00 0.00 38 1018.6
20260510174153 17 128 1.6 9.7 0.00 0.00 0.00 32 1018.9
20260510173649 17 195 4.8 11.3 0.00 0.00 0.00 34 1018.8
20260510173145 17 79 4.8 9.7 0.00 0.00 0.00 39 1018.7
20260510172640 17 102 0.0 4.8 0.00 0.00 0.00 41 1018.7
20260510172137 17 67 3.2 4.8 0.00 0.00 0.00 34 1019.0
20260510171634 17 52 1.6 8.0 0.00 0.00 0.00 36 1019.1
20260510171132 16 166 3.2 8.0 0.00 0.00 0.00 38 1019.0
20260510170628 17 95 3.2 4.8 0.00 0.00 0.00 38 1019.0
20260510170124 16 274 11.3 17.7 0.00 0.00 0.00 38 1019.1
20260510165620 17 24 3.2 4.8 0.00 0.00 0.00 36 1018.9
20260510165116 16 99 0.0 8.0 0.00 0.00 0.00 37 1018.8
20260510164614 17 270 6.4 9.7 0.00 0.00 0.00 35 1018.9
20260510164110 16 29 3.2 3.2 0.00 0.00 0.00 42 1018.9
20260510163605 15 317 3.2 12.9 0.00 0.00 0.00 39 1018.8
20260510163102 16 97 0.0 4.8 0.00 0.00 0.00 43 1018.6
20260510162556 16 168 3.2 3.2 0.00 0.00 0.00 39 1018.8
20260510162053 16 80 3.2 8.0 0.00 0.00 0.00 37 1018.5
20260510161549 16 80 3.2 4.8 0.00 0.00 0.00 37 1018.6
20260510161046 16 104 1.6 8.0 0.00 0.00 0.00 40 1018.6
20260510160543 16 67 3.2 8.0 0.00 0.00 0.00 41 1018.6
20260510160043 16 155 1.6 3.2 0.00 0.00 0.00 42 1018.5
20260510155539 16 137 3.2 4.8 0.00 0.00 0.00 43 1018.3
20260510155036 16 145 0.0 9.7 0.00 0.00 0.00 36 1018.4
20260510154531 17 97 1.6 3.2 0.00 0.00 0.00 46 1018.4
20260510154027 16 73 0.0 1.6 0.00 0.00 0.00 42 1018.5
20260510153522 16 96 1.6 3.2 0.00 0.00 0.00 42 1018.3
20260510153019 16 76 1.6 1.6 0.00 0.00 0.00 38 1018.4
20260510152516 15 36 6.4 8.0 0.00 0.00 0.00 38 1018.5
20260510152012 15 68 1.6 1.6 0.00 0.00 0.00 42 1018.6
20260510151509 15 168 1.6 4.8 0.00 0.00 0.00 37 1018.3
20260510151007 15 111 0.0 4.8 0.00 0.00 0.00 38 1018.3
20260510150501 15 178 4.8 9.7 0.00 0.00 0.00 38 1018.4
20260510145957 15 134 1.6 3.2 0.00 0.00 0.00 38 1018.2
20260510145454 15 171 0.0 3.2 0.00 0.00 0.00 39 1018.3
20260510144951 15 129 3.2 4.8 0.00 0.00 0.00 41 1018.3
20260510144448 15 97 1.6 1.6 0.00 0.00 0.00 37 1018.5
20260510143943 15 60 3.2 4.8 0.00 0.00 0.00 39 1018.4
20260510143439 14 95 0.0 1.6 0.00 0.00 0.00 40 1018.4
20260510142936 15 98 0.0 1.6 0.00 0.00 0.00 39 1018.3
20260510142427 15 83 0.0 3.2 0.00 0.00 0.00 40 1018.3
20260510141924 14 82 3.2 4.8 0.00 0.00 0.00 39 1018.2
20260510141420 14 52 1.6 3.2 0.00 0.00 0.00 39 1018.3
20260510140918 14 104 1.6 1.6 0.00 0.00 0.00 40 1018.2
20260510140413 13 80 1.6 3.2 0.00 0.00 0.00 39 1018.1
20260510135907 13 59 1.6 3.2 0.00 0.00 0.00 41 1017.9
20260510135404 13 108 0.0 3.2 0.00 0.00 0.00 41 1018.2
20260510134901 12 87 0.0 1.6 0.00 0.00 0.00 42 1018.0
20260510134357 12 98 1.6 4.8 0.00 0.00 0.00 43 1018.0
20260510133854 12 133 1.6 1.6 0.00 0.00 0.00 44 1017.7
20260510133350 12 66 4.8 8.0 0.00 0.00 0.00 42 1017.8
20260510132846 11 85 1.6 3.2 0.00 0.00 0.00 46 1017.8
20260510132344 11 73 1.6 9.7 0.00 0.00 0.00 46 1017.8
20260510131840 11 80 1.6 8.0 0.00 0.00 0.00 48 1017.6
20260510131338 11 94 0.0 3.2 0.00 0.00 0.00 50 1017.6
20260510130834 11 82 3.2 4.8 0.00 0.00 0.00 51 1017.7
20260510130332 10 48 1.6 3.2 0.00 0.00 0.00 52 1017.4
20260510125828 10 42 3.2 4.8 0.00 0.00 0.00 53 1017.2
20260510125324 10 75 1.6 1.6 0.00 0.00 0.00 57 1017.4
20260510124821 10 103 0.0 1.6 0.00 0.00 0.00 61 1017.6
20260510124318 9 108 1.6 3.2 0.00 0.00 0.00 61 1017.4
20260510123814 8 57 0.0 1.6 0.00 0.00 0.00 65 1017.2
20260510123310 8 111 1.6 1.6 0.00 0.00 0.00 66 1017.2
20260510122806 8 71 3.2 4.8 0.00 0.00 0.00 66 1017.0
20260510122306 7 67 1.6 3.2 0.00 0.00 0.00 70 1017.0
20260510121759 7 85 0.0 0.0 0.00 0.00 0.00 74 1016.8
20260510121256 7 99 0.0 1.6 0.00 0.00 0.00 75 1016.9
20260510120753 7 89 0.0 3.2 0.00 0.00 0.00 73 1016.9
20260510120250 6 96 0.0 0.0 0.00 0.00 0.00 78 1016.9
20260510115746 6 93 0.0 0.0 0.00 0.00 0.00 80 1016.6
20260510115244 6 90 0.0 0.0 0.00 0.00 0.00 82 1016.7
20260510114738 5 97 0.0 0.0 0.00 0.00 0.00 81 1016.5
20260510114236 6 92 0.0 0.0 0.00 0.00 0.00 83 1016.7
20260510113731 5 94 0.0 0.0 0.00 0.00 0.00 85 1016.5
20260510113229 5 92 0.0 0.0 0.00 0.00 0.00 88 1016.4
20260510112725 4 92 0.0 0.0 0.00 0.00 0.00 89 1016.3
20260510112222 3 92 0.0 0.0 0.00 0.00 0.00 91 1016.1
20260510111717 2 92 0.0 0.0 0.00 0.00 0.00 90 1016.2
20260510111214 3 92 0.0 0.0 0.00 0.00 0.00 90 1016.2
20260510110709 3 92 0.0 0.0 0.00 0.00 0.00 90 1016.0
20260510110207 3 94 0.0 0.0 0.00 0.00 0.00 90 1015.9
20260510105707 3 90 0.0 0.0 0.00 0.00 0.00 90 1015.9
20260510105207 3 95 0.0 0.0 0.00 0.00 0.00 89 1015.8
20260510104704 3 91 0.0 0.0 0.00 0.00 0.00 88 1015.7
20260510104201 3 92 0.0 0.0 0.00 0.00 0.00 88 1015.5
20260510103657 3 90 0.0 0.0 0.00 0.00 0.00 88 1015.6
20260510103154 3 94 0.0 0.0 0.00 0.00 0.00 87 1015.6
20260510102654 3 99 0.0 0.0 0.00 0.00 0.00 87 1015.5
20260510102151 3 90 0.0 0.0 0.00 0.00 0.00 87 1015.5
20260510101648 3 100 0.0 0.0 0.00 0.00 0.00 86 1015.6
20260510101147 3 94 0.0 0.0 0.00 0.00 0.00 86 1015.2
20260510100642 3 95 0.0 0.0 0.00 0.00 0.00 86 1015.2
20260510100140 3 93 0.0 0.0 0.00 0.00 0.00 85 1015.1
20260510095635 3 93 0.0 0.0 0.00 0.00 0.00 84 1015.0
20260510095130 4 90 0.0 0.0 0.00 0.00 0.00 83 1015.2
20260510094629 4 91 0.0 0.0 0.00 0.00 0.00 82 1014.9
20260510094125 4 92 0.0 0.0 0.00 0.00 0.00 81 1015.0
20260510093621 5 92 0.0 0.0 0.00 0.00 0.00 81 1014.9
20260510093119 5 92 0.0 0.0 0.00 0.00 0.00 81 1014.7
20260510092615 5 86 0.0 0.0 0.00 0.00 0.00 81 1014.8
20260510092115 5 89 0.0 0.0 0.00 0.00 0.00 80 1014.9
20260510091612 5 89 0.0 0.0 0.00 0.00 0.00 79 1015.0
20260510091108 5 89 0.0 0.0 0.00 0.00 0.00 78 1015.1
20260510090605 5 89 0.0 0.0 0.00 0.00 0.00 76 1014.8
20260510090101 5 87 0.0 0.0 0.00 0.00 0.00 75 1015.0
20260510085556 6 87 0.0 0.0 0.00 0.00 0.00 74 1014.9
20260510085052 6 86 0.0 0.0 0.00 0.00 0.00 72 1014.9
20260510084549 6 85 0.0 0.0 0.00 0.00 0.00 71 1014.9
20260510084045 7 86 0.0 0.0 0.00 0.00 0.00 69 1014.6
20260510083542 7 85 0.0 0.0 0.00 0.00 0.00 66 1015.0
20260510083038 7 81 0.0 0.0 0.00 0.00 0.00 64 1014.7
20260510082535 7 82 0.0 1.6 0.00 0.00 0.00 64 1014.8
20260510082030 7 77 1.6 1.6 0.00 0.00 0.00 63 1014.7
20260510081526 8 78 1.6 3.2 0.00 0.00 0.00 62 1014.7
20260510081022 8 60 1.6 1.6 0.00 0.00 0.00 62 1014.4
20260510080521 8 82 1.6 1.6 0.00 0.00 0.00 62 1014.3
20260510080018 8 64 1.6 3.2 0.00 0.00 0.00 61 1014.4
20260510075515 8 73 3.2 3.2 0.00 0.00 0.00 60 1014.1
20260510075012 8 19 4.8 4.8 0.00 0.00 0.00 60 1013.8
20260510074510 8 60 1.6 4.8 0.00 0.00 0.00 60 1013.9
20260510074005 8 63 3.2 8.0 0.00 0.00 0.00 60 1013.7
20260510073501 8 73 0.0 3.2 0.00 0.00 0.00 64 1013.6
20260510072958 8 54 1.6 3.2 0.00 0.00 0.00 63 1013.7
20260510072455 8 79 0.0 4.8 0.00 0.00 0.00 64 1013.8
20260510071950 8 24 1.6 3.2 0.00 0.00 0.00 67 1013.7
20260510071446 8 65 1.6 4.8 0.00 0.00 0.00 68 1013.3
20260510070945 8 46 3.2 3.2 0.00 0.00 0.00 70 1013.1
20260510070442 8 74 1.6 8.0 0.00 0.00 0.00 70 1013.3
20260510065937 8 72 1.6 1.6 0.00 0.00 0.00 72 1013.3
20260510065435 7 53 4.8 4.8 0.00 0.00 0.00 77 1013.1
20260510064930 6 94 0.0 0.0 0.00 0.00 0.00 85 1013.1
20260510064428 6 97 0.0 0.0 0.00 0.00 0.00 87 1012.9
20260510063925 6 87 0.0 0.0 0.00 0.00 0.00 88 1012.9
20260510063421 6 76 0.0 0.0 0.00 0.00 0.00 89 1012.8
20260510062919 6 83 0.0 0.0 0.00 0.00 0.00 89 1012.6
20260510062414 6 94 0.0 0.0 0.00 0.00 0.00 88 1012.5
20260510061910 6 95 0.0 0.0 0.00 0.00 0.00 87 1012.8
20260510061407 6 106 0.0 0.0 0.00 0.00 0.00 87 1012.7
20260510060902 6 93 0.0 0.0 0.00 0.00 0.00 87 1012.5
20260510060359 6 84 0.0 0.0 0.00 0.00 0.00 87 1012.3
20260510055856 6 110 0.0 0.0 0.00 0.00 0.00 87 1012.4
20260510055355 6 83 0.0 0.0 0.00 0.00 0.00 85 1012.5
20260510054849 6 95 0.0 0.0 0.00 0.00 0.00 84 1012.5
20260510054345 7 94 0.0 0.0 0.00 0.00 0.00 84 1012.4
20260510053840 7 93 0.0 0.0 0.00 0.00 0.00 83 1012.3
20260510053335 7 97 0.0 0.0 0.00 0.00 0.00 83 1012.3
20260510052832 7 100 0.0 0.0 0.00 0.00 0.00 83 1012.3
20260510052327 7 100 0.0 0.0 0.00 0.00 0.00 83 1012.2
20260510051824 7 96 0.0 0.0 0.00 0.00 0.00 83 1011.8
20260510051321 7 105 0.0 0.0 0.00 0.00 0.00 84 1012.1
20260510050818 7 94 0.0 0.0 0.00 0.00 0.00 84 1011.9
20260510050314 7 91 1.6 3.2 0.00 0.00 0.00 85 1011.6
20260510045812 7 93 0.0 0.0 0.00 0.00 0.00 84 1011.6
20260510045308 8 113 0.0 0.0 0.00 0.00 0.00 83 1011.5
20260510044805 8 103 0.0 0.0 0.00 0.00 0.00 81 1011.3
20260510044302 7 93 0.0 0.0 0.00 0.00 0.00 80 1011.5
20260510043758 8 90 0.0 0.0 0.00 0.00 0.00 80 1011.3
20260510043249 8 92 0.0 0.0 0.00 0.00 0.00 78 1011.1
20260510042746 8 90 0.0 0.0 0.00 0.00 0.00 75 1011.1
20260510042242 8 89 0.0 0.0 0.00 0.00 0.00 74 1010.9
20260510041739 8 93 0.0 0.0 0.00 0.00 0.00 74 1011.0
20260510041236 9 93 0.0 0.0 0.00 0.00 0.00 73 1010.8
20260510040733 9 94 0.0 0.0 0.00 0.00 0.00 72 1010.7
20260510040230 9 93 0.0 0.0 0.00 0.00 0.00 71 1010.6
20260510035725 10 88 0.0 0.0 0.00 0.00 0.00 69 1010.5
20260510035221 10 87 0.0 0.0 0.00 0.00 0.00 69 1010.7
20260510034717 10 87 0.0 0.0 0.00 0.00 0.00 67 1010.7
20260510034216 10 84 0.0 0.0 0.00 0.00 0.00 65 1010.6
20260510033711 10 87 0.0 0.0 0.00 0.00 0.00 65 1010.5
20260510033210 11 86 0.0 0.0 0.00 0.00 0.00 63 1010.7
20260510032705 11 93 0.0 0.0 0.00 0.00 0.00 62 1010.3
20260510032201 11 93 0.0 0.0 0.00 0.00 0.00 61 1010.4
20260510031655 11 89 0.0 1.6 0.00 0.00 0.00 60 1010.4
20260510031152 11 88 0.0 0.0 0.00 0.00 0.00 60 1010.4
20260510030646 12 81 0.0 1.6 0.00 0.00 0.00 60 1010.2
20260510030145 12 70 1.6 1.6 0.00 0.00 0.00 56 1010.2
20260510025642 12 71 0.0 1.6 0.00 0.00 0.00 55 1010.0
20260510025139 12 79 1.6 3.2 0.00 0.00 0.00 54 1009.8
20260510024635 12 83 0.0 3.2 0.00 0.00 0.00 54 1009.8
20260510024132 13 55 0.0 3.2 0.00 0.00 0.00 54 1009.8
20260510023628 13 84 1.6 3.2 0.00 0.00 0.00 54 1009.6
20260510023126 13 75 0.0 1.6 0.00 0.00 0.00 54 1009.5
20260510022625 13 89 0.0 1.6 0.00 0.00 0.00 54 1009.5
20260510022120 13 88 1.6 3.2 0.00 0.00 0.00 53 1009.4
20260510021611 13 72 1.6 4.8 0.00 0.00 0.00 52 1009.0
20260510021108 14 59 1.6 3.2 0.00 0.00 0.00 52 1008.7
20260510020602 15 88 1.6 1.6 0.00 0.00 0.00 51 1008.7
20260510020058 15 58 1.6 3.2 0.00 0.00 0.00 48 1008.5
20260510015554 16 66 3.2 4.8 0.00 0.00 0.00 46 1008.5
20260510015050 16 90 1.6 1.6 0.00 0.00 0.00 42 1008.3
20260510014546 16 61 1.6 3.2 0.00 0.00 0.00 42 1008.0
20260510014043 17 82 0.0 4.8 0.00 0.00 0.00 42 1008.0
20260510013538 17 67 1.6 3.2 0.00 0.00 0.00 42 1007.9
20260510013034 17 46 4.8 4.8 0.00 0.00 0.00 42 1007.5
20260510012528 17 53 1.6 3.2 0.00 0.00 0.00 44 1007.6
20260510012025 17 66 1.6 1.6 0.00 0.00 0.00 43 1007.5
20260510011525 17 40 4.8 8.0 0.00 0.00 0.00 41 1007.3
20260510011021 17 76 3.2 3.2 0.00 0.00 0.00 42 1007.3
20260510010518 18 72 1.6 4.8 0.00 0.00 0.00 41 1007.1
20260510010015 18 116 3.2 9.7 0.00 0.00 0.00 40 1007.1
20260510005510 18 38 1.6 3.2 0.00 0.00 0.00 43 1006.9
20260510005008 18 21 8.0 9.7 0.00 0.00 0.00 40 1007.0
20260510004505 18 335 3.2 8.0 0.00 0.00 0.00 43 1007.0
20260510004003 18 103 0.0 1.6 0.00 0.00 0.00 43 1006.3
20260510003500 18 81 1.6 4.8 0.00 0.00 0.00 42 1006.7
20260510002955 19 6 3.2 8.0 0.00 0.00 0.00 40 1006.3
20260510002451 19 32 4.8 4.8 0.00 0.00 0.00 38 1006.0
20260510001947 20 47 4.8 9.7 0.00 0.00 0.00 38 1005.9
20260510001445 20 8 4.8 8.0 0.00 0.00 0.00 37 1006.0
20260510000943 20 326 8.0 16.1 0.00 0.00 0.00 37 1005.7
20260510000440 20 277 3.2 9.7 0.00 0.00 0.00 38 1005.7
20260509235935 20 44 4.8 8.0 0.00 0.00 0.00 37 1005.7
20260509235432 20 12 8.0 14.5 0.00 0.00 0.00 38 1005.5
20260509234928 20 276 6.4 8.0 0.00 0.00 0.00 39 1005.4
20260509234425 20 264 6.4 16.1 0.00 0.00 0.00 38 1005.5
20260509233923 21 260 4.8 9.7 0.00 0.00 0.00 39 1005.5
20260509233421 21 327 3.2 3.2 0.00 0.00 0.00 39 1005.4
20260509232916 21 338 3.2 8.0 0.00 0.00 0.00 36 1005.3
20260509232415 21 47 3.2 12.9 0.00 0.00 0.00 36 1005.2
20260509231910 21 348 4.8 9.7 0.00 0.00 0.00 37 1005.2
20260509231407 21 263 4.8 12.9 0.00 0.00 0.00 36 1005.1
20260509230905 21 333 4.8 12.9 0.00 0.00 0.00 36 1005.0
20260509230401 21 137 8.0 11.3 0.00 0.00 0.00 37 1004.8
20260509225857 21 86 3.2 9.7 0.00 0.00 0.00 38 1004.8
20260509225354 21 297 4.8 14.5 0.00 0.00 0.00 38 1004.8
20260509224849 21 270 6.4 11.3 0.00 0.00 0.00 36 1004.8
20260509224345 21 1 8.0 16.1 0.00 0.00 0.00 33 1004.7
20260509223843 22 213 6.4 9.7 0.00 0.00 0.00 38 1004.5
20260509223340 21 307 8.0 12.9 0.00 0.00 0.00 34 1004.5
20260509222837 22 307 11.3 14.5 0.00 0.00 0.00 34 1004.6
20260509222332 22 313 8.0 11.3 0.00 0.00 0.00 34 1004.5
20260509221827 22 35 3.2 11.3 0.00 0.00 0.00 35 1004.5
20260509221325 22 82 6.4 11.3 0.00 0.00 0.00 35 1004.4
20260509220825 22 275 9.7 12.9 0.00 0.00 0.00 35 1004.3
20260509220321 22 210 6.4 11.3 0.00 0.00 0.00 36 1004.2
20260509215817 22 17 4.8 11.3 0.00 0.00 0.00 36 1004.4
20260509215314 22 58 4.8 9.7 0.00 0.00 0.00 35 1004.3
20260509214811 22 289 6.4 16.1 0.00 0.00 0.00 34 1004.1
20260509214308 22 358 4.8 8.0 0.00 0.00 0.00 34 1004.1
20260509213805 22 303 11.3 16.1 0.00 0.00 0.00 34 1004.1
20260509213300 22 1 4.8 8.0 0.00 0.00 0.00 36 1004.0
20260509212758 22 76 3.2 11.3 0.00 0.00 0.00 36 1003.7
20260509212255 22 45 6.4 11.3 0.00 0.00 0.00 37 1004.0
20260509211750 23 287 6.4 12.9 0.00 0.00 0.00 36 1003.9
20260509211247 23 325 8.0 12.9 0.00 0.00 0.00 34 1003.6
20260509210743 23 224 8.0 11.3 0.00 0.00 0.00 34 1003.7
20260509210242 23 326 4.8 9.7 0.00 0.00 0.00 36 1003.7
20260509205741 22 85 4.8 12.9 0.00 0.00 0.00 39 1003.6
20260509205236 23 301 11.3 14.5 0.00 0.00 0.00 35 1003.6
20260509204732 22 12 8.0 12.9 0.00 0.00 0.00 36 1003.6
20260509204229 23 348 8.0 12.9 0.00 0.00 0.00 34 1003.5
20260509203725 23 27 4.8 11.3 0.00 0.00 0.00 34 1003.7
20260509203223 23 295 4.8 14.5 0.00 0.00 0.00 37 1003.5
20260509202719 23 281 8.0 14.5 0.00 0.00 0.00 34 1003.5
20260509202215 22 260 8.0 11.3 0.00 0.00 0.00 38 1003.5
20260509201709 22 43 6.4 12.9 0.00 0.00 0.00 36 1003.6
20260509201207 22 26 4.8 11.3 0.00 0.00 0.00 37 1003.6
20260509200703 22 185 4.8 11.3 0.00 0.00 0.00 35 1003.5
20260509200157 23 279 4.8 11.3 0.00 0.00 0.00 34 1003.8